JLY7968 SBGO-SBSP

Flight info

Callsign JLY7968
Flight time 1h 16m
Altitude 30000
Route ESBOD DCT ISISA/N0455F310 DCT UTLOT
Aircraft B738/M-SDE2E3FGHIRWXY/LB1

Departure

Time 2026-05-05 18:29
Airport Santa Genoveva International Airport (SBGO)

Arrival

Time 2026-05-05 19:45
Airport Congonhas–Deputado Freitas Nobre Airport (SBSP)
Time Latitude Longitude Altitude Speed Heading
2026-05-05 18:07 -16.62978 -49.21536 2431 ft 0 kts 64°
2026-05-05 18:20 -16.62978 -49.21537 2434 ft 1 kts 63°
2026-05-05 18:20 -16.62986 -49.21552 2432 ft 3 kts 54°
2026-05-05 18:20 -16.63000 -49.21568 2431 ft 3 kts 38°
2026-05-05 18:20 -16.63016 -49.21580 2432 ft 3 kts 25°
2026-05-05 18:21 -16.63032 -49.21587 2432 ft 1 kts 23°
2026-05-05 18:21 -16.63037 -49.21589 2433 ft 0 kts 23°
2026-05-05 18:23 -16.63033 -49.21588 2432 ft 4 kts 15°
2026-05-05 18:23 -16.62990 -49.21606 2431 ft 8 kts 329°
2026-05-05 18:23 -16.62931 -49.21641 2432 ft 11 kts 309°
2026-05-05 18:24 -16.62931 -49.21728 2429 ft 14 kts 260°
2026-05-05 18:24 -16.62953 -49.21830 2433 ft 16 kts 257°
2026-05-05 18:24 -16.62979 -49.21951 2431 ft 18 kts 257°
2026-05-05 18:24 -16.62991 -49.22086 2432 ft 19 kts 275°
2026-05-05 18:25 -16.62950 -49.22212 2428 ft 18 kts 300°
2026-05-05 18:25 -16.62907 -49.22288 2431 ft 18 kts 300°
2026-05-05 18:25 -16.62823 -49.22437 2428 ft 19 kts 300°
2026-05-05 18:25 -16.62750 -49.22566 2427 ft 22 kts 301°
2026-05-05 18:26 -16.62675 -49.22699 2426 ft 21 kts 301°
2026-05-05 18:26 -16.62605 -49.22822 2427 ft 18 kts 300°
2026-05-05 18:26 -16.62581 -49.22917 2427 ft 8 kts 242°
2026-05-05 18:26 -16.62612 -49.22942 2426 ft 0 kts 210°
2026-05-05 18:27 -16.62648 -49.22964 2426 ft 10 kts 210°
2026-05-05 18:27 -16.62700 -49.22984 2425 ft 8 kts 154°
2026-05-05 18:28 -16.62897 -49.22643 2430 ft 84 kts 120°
2026-05-05 18:28 -16.63309 -49.21912 2431 ft 147 kts 120°
2026-05-05 18:28 -16.63845 -49.20882 2894 ft 166 kts 119°
2026-05-05 18:29 -16.64441 -49.19844 3716 ft 172 kts 119°
2026-05-05 18:29 -16.65093 -49.18695 4221 ft 199 kts 119°
2026-05-05 18:29 -16.65845 -49.17362 4431 ft 227 kts 120°
2026-05-05 18:29 -16.66757 -49.15919 4666 ft 252 kts 133°
2026-05-05 18:30 -16.68334 -49.15009 5128 ft 270 kts 166°
2026-05-05 18:30 -16.70218 -49.15143 6024 ft 278 kts 199°
2026-05-05 18:30 -16.71775 -49.16340 6816 ft 286 kts 233°
2026-05-05 18:30 -16.72787 -49.18142 7552 ft 291 kts 236°
2026-05-05 18:31 -16.74109 -49.19748 8228 ft 293 kts 217°
2026-05-05 18:31 -16.75906 -49.20705 8990 ft 290 kts 192°
2026-05-05 18:31 -16.77846 -49.21209 9802 ft 293 kts 193°
2026-05-05 18:31 -16.79817 -49.21831 10464 ft 300 kts 196°
2026-05-05 18:32 -16.81869 -49.22565 10657 ft 324 kts 198°
2026-05-05 18:32 -16.84069 -49.23392 10824 ft 347 kts 199°
2026-05-05 18:32 -16.86442 -49.24103 11054 ft 362 kts 184°
2026-05-05 18:32 -16.88943 -49.23874 11517 ft 363 kts 162°
2026-05-05 18:33 -16.91347 -49.23018 12143 ft 365 kts 159°
2026-05-05 18:33 -16.93748 -49.22093 12723 ft 370 kts 159°
2026-05-05 18:33 -16.96137 -49.21162 13303 ft 373 kts 159°
2026-05-05 18:33 -16.98580 -49.20215 13893 ft 376 kts 159°
2026-05-05 18:34 -17.01040 -49.19270 14474 ft 376 kts 159°
2026-05-05 18:34 -17.03512 -49.18329 14955 ft 381 kts 160°
2026-05-05 18:34 -17.06023 -49.17378 15438 ft 384 kts 160°
2026-05-05 18:34 -17.08541 -49.16427 15969 ft 386 kts 160°
2026-05-05 18:35 -17.11057 -49.15477 16593 ft 385 kts 161°
2026-05-05 18:35 -17.13587 -49.14524 17087 ft 388 kts 161°
2026-05-05 18:35 -17.16143 -49.13560 17502 ft 392 kts 161°
2026-05-05 18:35 -17.18722 -49.12587 17959 ft 395 kts 161°
2026-05-05 18:36 -17.21318 -49.11606 18419 ft 398 kts 161°
2026-05-05 18:36 -17.23931 -49.10619 18830 ft 401 kts 161°
2026-05-05 18:36 -17.26561 -49.09626 19221 ft 403 kts 161°
2026-05-05 18:36 -17.29181 -49.08655 19632 ft 404 kts 164°
2026-05-05 18:37 -17.31952 -49.08205 19999 ft 405 kts 180°
2026-05-05 18:37 -17.34784 -49.08172 20442 ft 406 kts 180°
2026-05-05 18:37 -17.37623 -49.08142 20832 ft 409 kts 180°
2026-05-05 18:37 -17.40472 -49.08106 21222 ft 411 kts 180°
2026-05-05 18:38 -17.43338 -49.08060 21591 ft 413 kts 180°
2026-05-05 18:38 -17.46216 -49.08005 21984 ft 415 kts 180°
2026-05-05 18:38 -17.49120 -49.07944 22368 ft 417 kts 180°
2026-05-05 18:38 -17.52026 -49.07879 22743 ft 419 kts 180°
2026-05-05 18:39 -17.54948 -49.07811 23102 ft 421 kts 180°
2026-05-05 18:39 -17.57852 -49.07743 23440 ft 423 kts 180°
2026-05-05 18:39 -17.60806 -49.07673 23769 ft 425 kts 180°
2026-05-05 18:39 -17.63760 -49.07603 24077 ft 426 kts 180°
2026-05-05 18:40 -17.66730 -49.07533 24401 ft 427 kts 180°
2026-05-05 18:40 -17.69710 -49.07462 24697 ft 428 kts 180°
2026-05-05 18:40 -17.72688 -49.07392 24992 ft 429 kts 180°
2026-05-05 18:40 -17.75683 -49.07321 25281 ft 431 kts 180°
2026-05-05 18:41 -17.78691 -49.07250 25581 ft 432 kts 180°
2026-05-05 18:41 -17.81693 -49.07180 25868 ft 433 kts 181°
2026-05-05 18:41 -17.84716 -49.07108 26148 ft 435 kts 181°
2026-05-05 18:41 -17.87745 -49.07037 26431 ft 436 kts 181°
2026-05-05 18:42 -17.90781 -49.06965 26765 ft 435 kts 181°
2026-05-05 18:42 -17.93768 -49.06893 27184 ft 433 kts 181°
2026-05-05 18:42 -17.96771 -49.06822 27642 ft 430 kts 181°
2026-05-05 18:42 -17.99758 -49.06750 28086 ft 428 kts 181°
2026-05-05 18:43 -18.02732 -49.06680 28472 ft 427 kts 182°
2026-05-05 18:43 -18.05697 -49.06610 28858 ft 426 kts 182°
2026-05-05 18:43 -18.08657 -49.06540 29291 ft 424 kts 182°
2026-05-05 18:43 -18.11603 -49.06470 29735 ft 422 kts 182°
2026-05-05 18:44 -18.14537 -49.06400 30094 ft 422 kts 182°
2026-05-05 18:44 -18.17489 -49.06331 30071 ft 425 kts 182°
2026-05-05 18:44 -18.23396 -49.06192 30082 ft 421 kts 182°
2026-05-05 18:45 -18.29198 -49.06053 30094 ft 420 kts 182°
2026-05-05 18:45 -18.35043 -49.05915 30088 ft 421 kts 182°
2026-05-05 18:46 -18.40901 -49.05776 30100 ft 421 kts 182°
2026-05-05 18:46 -18.46761 -49.05637 30089 ft 422 kts 182°
2026-05-05 18:47 -18.51676 -49.05520 30090 ft 421 kts 182°
2026-05-05 18:47 -18.57511 -49.05381 30089 ft 421 kts 182°
2026-05-05 18:48 -18.63372 -49.05241 30086 ft 421 kts 182°
2026-05-05 18:48 -18.69229 -49.05102 30093 ft 420 kts 182°
2026-05-05 18:49 -18.75048 -49.04963 30092 ft 420 kts 182°
2026-05-05 18:49 -18.80880 -49.04823 30091 ft 419 kts 182°
2026-05-05 18:50 -18.86718 -49.04684 30090 ft 419 kts 182°
2026-05-05 18:50 -18.92551 -49.04544 30098 ft 419 kts 182°
2026-05-05 18:51 -18.98384 -49.04405 30093 ft 419 kts 182°
2026-05-05 18:51 -19.04207 -49.04266 30094 ft 418 kts 182°
2026-05-05 18:52 -19.10028 -49.04126 30091 ft 418 kts 182°
2026-05-05 18:52 -19.15843 -49.03987 30090 ft 418 kts 182°
2026-05-05 18:53 -19.21620 -49.03848 30086 ft 417 kts 182°
2026-05-05 18:53 -19.27428 -49.03709 30092 ft 417 kts 182°
2026-05-05 18:54 -19.33236 -49.03569 30083 ft 417 kts 182°
2026-05-05 18:54 -19.39035 -49.03430 30088 ft 417 kts 182°
2026-05-05 18:55 -19.44835 -49.03290 30091 ft 417 kts 182°
2026-05-05 18:55 -19.50609 -49.03151 30083 ft 417 kts 182°
2026-05-05 18:56 -19.56420 -49.03011 30093 ft 417 kts 182°
2026-05-05 18:56 -19.62219 -49.02871 30086 ft 417 kts 182°
2026-05-05 18:57 -19.68033 -49.02731 30080 ft 417 kts 182°
2026-05-05 18:57 -19.73843 -49.02591 30084 ft 417 kts 182°
2026-05-05 18:58 -19.79652 -49.02450 30084 ft 417 kts 182°
2026-05-05 18:58 -19.85423 -49.02311 30094 ft 417 kts 182°
2026-05-05 18:59 -19.91223 -49.02170 30093 ft 417 kts 182°
2026-05-05 18:59 -19.97031 -49.02030 30095 ft 417 kts 182°
2026-05-05 19:00 -20.02827 -49.01889 30092 ft 417 kts 182°
2026-05-05 19:00 -20.08627 -49.01749 30100 ft 416 kts 182°
2026-05-05 19:01 -20.14428 -49.01608 30087 ft 416 kts 182°
2026-05-05 19:01 -20.20231 -49.01467 30099 ft 417 kts 182°
2026-05-05 19:02 -20.26028 -49.01326 30088 ft 417 kts 182°
2026-05-05 19:02 -20.31792 -49.01186 30090 ft 417 kts 182°
2026-05-05 19:03 -20.37597 -49.01045 30102 ft 417 kts 182°
2026-05-05 19:03 -20.43409 -49.00903 30104 ft 417 kts 182°
2026-05-05 19:04 -20.49224 -49.00761 30100 ft 418 kts 182°
2026-05-05 19:04 -20.55036 -49.00619 30098 ft 418 kts 182°
2026-05-05 19:05 -20.60854 -49.00477 30095 ft 418 kts 182°
2026-05-05 19:05 -20.66665 -49.00335 30090 ft 417 kts 182°
2026-05-05 19:06 -20.72438 -49.00194 30100 ft 417 kts 182°
2026-05-05 19:06 -20.78254 -49.00052 30099 ft 417 kts 182°
2026-05-05 19:07 -20.84066 -48.99909 30098 ft 417 kts 182°
2026-05-05 19:07 -20.89865 -48.99767 30087 ft 417 kts 182°
2026-05-05 19:08 -20.95674 -48.99624 30100 ft 417 kts 182°
2026-05-05 19:08 -21.01433 -48.99483 30093 ft 417 kts 182°
2026-05-05 19:09 -21.07234 -48.99341 30099 ft 416 kts 182°
2026-05-05 19:09 -21.13032 -48.99198 30089 ft 416 kts 182°
2026-05-05 19:10 -21.18817 -48.99056 30116 ft 416 kts 182°
2026-05-05 19:10 -21.24606 -48.98913 30112 ft 416 kts 182°
2026-05-05 19:11 -21.30395 -48.98770 30096 ft 416 kts 182°
2026-05-05 19:11 -21.36146 -48.98629 30096 ft 416 kts 182°
2026-05-05 19:12 -21.41938 -48.98486 30102 ft 416 kts 182°
2026-05-05 19:12 -21.47727 -48.98343 30100 ft 416 kts 182°
2026-05-05 19:13 -21.53513 -48.98199 30099 ft 416 kts 182°
2026-05-05 19:13 -21.59300 -48.98056 30098 ft 416 kts 182°
2026-05-05 19:14 -21.64990 -48.96964 30125 ft 427 kts 159°
2026-05-05 19:14 -21.67538 -48.95256 30093 ft 437 kts 144°
2026-05-05 19:14 -21.69651 -48.92858 30133 ft 444 kts 135°
2026-05-05 19:15 -21.73529 -48.87657 30105 ft 447 kts 134°
2026-05-05 19:15 -21.77397 -48.82423 30098 ft 447 kts 134°
2026-05-05 19:16 -21.81278 -48.77247 30104 ft 447 kts 134°
2026-05-05 19:16 -21.85199 -48.72058 30110 ft 446 kts 134°
2026-05-05 19:17 -21.89123 -48.66872 30108 ft 446 kts 134°
2026-05-05 19:17 -21.93041 -48.61688 30106 ft 446 kts 134°
2026-05-05 19:18 -21.96960 -48.56497 30110 ft 446 kts 134°
2026-05-05 19:18 -22.00873 -48.51307 30113 ft 446 kts 134°
2026-05-05 19:19 -22.04783 -48.46116 30118 ft 446 kts 134°
2026-05-05 19:19 -22.08662 -48.40961 30118 ft 445 kts 134°
2026-05-05 19:20 -22.12561 -48.35774 30121 ft 445 kts 134°
2026-05-05 19:20 -22.16463 -48.30580 30126 ft 445 kts 134°
2026-05-05 19:21 -22.20355 -48.25392 30133 ft 444 kts 134°
2026-05-05 19:21 -22.24244 -48.20204 30129 ft 444 kts 133°
2026-05-05 19:22 -22.28125 -48.15022 30137 ft 444 kts 133°
2026-05-05 19:22 -22.32015 -48.09821 30122 ft 444 kts 133°
2026-05-05 19:23 -22.35885 -48.04642 30140 ft 443 kts 133°
2026-05-05 19:23 -22.39760 -47.99452 30132 ft 442 kts 133°
2026-05-05 19:24 -22.41663 -47.96896 30116 ft 430 kts 133°
2026-05-05 19:24 -22.43522 -47.94400 29829 ft 423 kts 133°
2026-05-05 19:24 -22.45348 -47.91951 29511 ft 415 kts 133°
2026-05-05 19:24 -22.47130 -47.89562 29116 ft 411 kts 133°
2026-05-05 19:25 -22.48924 -47.87165 28690 ft 408 kts 133°
2026-05-05 19:25 -22.50708 -47.84794 28268 ft 404 kts 133°
2026-05-05 19:25 -22.52481 -47.82443 27857 ft 401 kts 133°
2026-05-05 19:25 -22.54242 -47.80107 27453 ft 398 kts 133°
2026-05-05 19:26 -22.55990 -47.77786 27050 ft 396 kts 132°
2026-05-05 19:26 -22.57724 -47.75481 26645 ft 394 kts 132°
2026-05-05 19:26 -22.59446 -47.73190 26246 ft 391 kts 132°
2026-05-05 19:26 -22.61159 -47.70910 25853 ft 389 kts 132°
2026-05-05 19:27 -22.62837 -47.68674 25460 ft 387 kts 131°
2026-05-05 19:27 -22.64534 -47.66412 25064 ft 386 kts 131°
2026-05-05 19:27 -22.66225 -47.64158 24660 ft 385 kts 131°
2026-05-05 19:27 -22.67907 -47.61914 24248 ft 384 kts 131°
2026-05-05 19:28 -22.69584 -47.59676 23868 ft 382 kts 131°
2026-05-05 19:28 -22.71263 -47.57434 23423 ft 382 kts 131°
2026-05-05 19:28 -22.72927 -47.55210 23002 ft 379 kts 131°
2026-05-05 19:28 -22.74587 -47.52992 22597 ft 377 kts 131°
2026-05-05 19:29 -22.76231 -47.50794 22203 ft 374 kts 131°
2026-05-05 19:29 -22.77862 -47.48612 21809 ft 372 kts 131°
2026-05-05 19:29 -22.79476 -47.46451 21414 ft 370 kts 131°
2026-05-05 19:29 -22.81098 -47.44277 21033 ft 367 kts 131°
2026-05-05 19:30 -22.82700 -47.42129 20658 ft 365 kts 131°
2026-05-05 19:30 -22.84294 -47.39991 20285 ft 363 kts 131°
2026-05-05 19:30 -22.85857 -47.37894 19924 ft 361 kts 130°
2026-05-05 19:30 -22.87431 -47.35781 19562 ft 359 kts 130°
2026-05-05 19:31 -22.89003 -47.33670 19184 ft 358 kts 130°
2026-05-05 19:31 -22.90564 -47.31573 18798 ft 357 kts 130°
2026-05-05 19:31 -22.92121 -47.29480 18435 ft 356 kts 130°
2026-05-05 19:31 -22.93676 -47.27390 18014 ft 355 kts 130°
2026-05-05 19:32 -22.95220 -47.25312 17629 ft 352 kts 130°
2026-05-05 19:32 -22.96747 -47.23256 17255 ft 350 kts 130°
2026-05-05 19:32 -22.98269 -47.21208 16889 ft 347 kts 130°
2026-05-05 19:32 -22.99781 -47.19172 16522 ft 344 kts 130°
2026-05-05 19:33 -23.01286 -47.17171 16159 ft 342 kts 133°
2026-05-05 19:33 -23.03161 -47.15621 15777 ft 339 kts 154°
2026-05-05 19:33 -23.05385 -47.14839 15444 ft 335 kts 167°
2026-05-05 19:33 -23.07667 -47.14340 15086 ft 334 kts 169°
2026-05-05 19:34 -23.09947 -47.13872 14723 ft 332 kts 169°
2026-05-05 19:34 -23.12220 -47.13402 14348 ft 332 kts 168°
2026-05-05 19:34 -23.13718 -47.13086 14113 ft 331 kts 168°
2026-05-05 19:35 -23.18209 -47.12114 13326 ft 328 kts 168°
2026-05-05 19:35 -23.20438 -47.11625 12923 ft 326 kts 168°
2026-05-05 19:35 -23.22652 -47.11137 12565 ft 324 kts 167°
2026-05-05 19:35 -23.24861 -47.10649 12205 ft 322 kts 167°
2026-05-05 19:36 -23.27052 -47.10168 11833 ft 321 kts 168°
2026-05-05 19:36 -23.29217 -47.09694 11459 ft 320 kts 167°
2026-05-05 19:36 -23.31426 -47.09210 11081 ft 320 kts 168°
2026-05-05 19:36 -23.33609 -47.08732 10703 ft 319 kts 168°
2026-05-05 19:37 -23.35754 -47.08262 10333 ft 318 kts 168°
2026-05-05 19:37 -23.37922 -47.07787 10072 ft 314 kts 168°
2026-05-05 19:37 -23.40001 -47.07316 10077 ft 299 kts 163°
2026-05-05 19:37 -23.41776 -47.06317 9934 ft 281 kts 136°
2026-05-05 19:38 -23.42969 -47.04688 9577 ft 273 kts 117°
2026-05-05 19:38 -23.43633 -47.02771 9087 ft 272 kts 106°
2026-05-05 19:38 -23.44149 -47.00791 8621 ft 270 kts 105°
2026-05-05 19:38 -23.44646 -46.98813 8168 ft 270 kts 105°
2026-05-05 19:39 -23.45141 -46.96849 7799 ft 267 kts 105°
2026-05-05 19:39 -23.45633 -46.94916 7531 ft 269 kts 105°
2026-05-05 19:39 -23.46139 -46.92945 7272 ft 270 kts 106°
2026-05-05 19:39 -23.46645 -46.90978 7013 ft 269 kts 106°
2026-05-05 19:40 -23.47152 -46.89018 6761 ft 268 kts 106°
2026-05-05 19:40 -23.47656 -46.87073 6528 ft 266 kts 106°
2026-05-05 19:40 -23.48160 -46.85126 6272 ft 265 kts 106°
2026-05-05 19:40 -23.48659 -46.83203 6011 ft 264 kts 106°
2026-05-05 19:41 -23.49157 -46.81280 5772 ft 262 kts 106°
2026-05-05 19:41 -23.49648 -46.79381 5524 ft 260 kts 107°
2026-05-05 19:41 -23.50132 -46.77508 5261 ft 253 kts 107°
2026-05-05 19:41 -23.50602 -46.75692 5048 ft 244 kts 107°
2026-05-05 19:42 -23.51128 -46.74013 4927 ft 225 kts 122°
2026-05-05 19:42 -23.52210 -46.72942 4787 ft 209 kts 149°
2026-05-05 19:42 -23.53423 -46.72102 4510 ft 200 kts 147°
2026-05-05 19:42 -23.54544 -46.71299 4299 ft 184 kts 148°
2026-05-05 19:43 -23.55583 -46.70574 4040 ft 170 kts 148°
2026-05-05 19:43 -23.56524 -46.69919 3918 ft 150 kts 148°
2026-05-05 19:43 -23.57411 -46.69303 3729 ft 151 kts 148°
2026-05-05 19:43 -23.58292 -46.68689 3536 ft 148 kts 148°
2026-05-05 19:44 -23.59157 -46.68088 3352 ft 152 kts 147°
2026-05-05 19:44 -23.60061 -46.67459 3144 ft 156 kts 147°
2026-05-05 19:44 -23.60974 -46.66823 2935 ft 155 kts 146°
2026-05-05 19:44 -23.61890 -46.66186 2729 ft 157 kts 146°
2026-05-05 19:45 -23.62775 -46.65570 2624 ft 137 kts 149°
2026-05-05 19:45 -23.63228 -46.65256 2641 ft 27 kts 146°
2026-05-05 19:45 -23.63396 -46.65228 2641 ft 19 kts 227°
2026-05-05 19:45 -23.63361 -46.65311 2643 ft 13 kts 323°
2026-05-05 19:46 -23.63289 -46.65365 2641 ft 13 kts 329°
2026-05-05 19:46 -23.63213 -46.65415 2639 ft 13 kts 329°
2026-05-05 19:46 -23.63136 -46.65466 2636 ft 13 kts 328°
2026-05-05 19:46 -23.63049 -46.65514 2631 ft 15 kts 350°
2026-05-05 19:47 -23.62945 -46.65561 2626 ft 17 kts 328°
2026-05-05 19:47 -23.62844 -46.65630 2625 ft 17 kts 328°
2026-05-05 19:47 -23.62744 -46.65700 2621 ft 18 kts 327°
2026-05-05 19:47 -23.62635 -46.65775 2617 ft 19 kts 327°
2026-05-05 19:48 -23.62536 -46.65844 2613 ft 13 kts 327°
2026-05-05 19:48 -23.62482 -46.65884 2611 ft 4 kts 315°
2026-05-05 19:48 -23.62487 -46.65916 2611 ft 5 kts 242°
2026-05-05 19:48 -23.62504 -46.65946 2611 ft 5 kts 237°
2026-05-05 19:49 -23.62510 -46.65957 2611 ft 1 kts 237°
2026-05-05 19:49 -23.62512 -46.65960 2611 ft 1 kts 237°
2026-05-05 19:49 -23.62514 -46.65964 2611 ft 0 kts 237°
2026-05-05 19:49 -23.62515 -46.65965 2611 ft 0 kts 237°